Location: Unspecified
(43.3830°N, 0.0000°E)
Time: 00:27:21
(UTC+00:00)

Vanguard 2 - Pass Details

Date: 18 June 2019
Orbit: 553 x 2938 km, 32.9° (Epoch: 22 July)

Event Time Altitude Azimuth Distance (km) Brightness Sun altitude
Rises 08:48:06 0° 219° (SW) 3,415 10.7 45.8°
Reaches altitude 10° 08:50:36 10° 207° (SSW) 2,724 10.3 46.3°
Maximum altitude 08:56:09 28° 150° (SSE) 2,236 10.8 47.2°
Drops below altitude 10° 09:04:22 10° 98° (E) 4,142 12.2 48.7°
Sets 09:09:12 0° 89° (E) 5,581 12.5 49.5°
